Marion, OH

1:00 PM EDT on April 30, 2017 (GMT -0400)
Marion Municipal

Weather History for KMNN - January, 2013

Change the Weather History Date:

Sunday, January 13, 2013

  Actual Average (KDLZ) Record (KDLZ)
Temperature  
Mean Temperature 49 °F -  
Max Temperature 63 °F 31 °F 62 °F (2013)
Min Temperature 35 °F 12 °F -16 °F (1977)
Degree Days  
Heating Degree Days 16    
Moisture  
Dew Point 49 °F    
Average Humidity 93    
Maximum Humidity 100    
Minimum Humidity 81    
Precipitation  
Precipitation 0.54 in - - ()
Sea Level Pressure  
Sea Level Pressure 29.87 in    
Wind  
Wind Speed 14 mph (West)    
Max Wind Speed 23 mph    
Max Gust Speed 33 mph    
Visibility 7 miles    
Events Rain    
Averages and records for this station are not official NWS values.
T = Trace of Precipitation, MM = Missing Value Source: NWS Daily Summary

Daily Weather History Graph

Daily Weather History Graph

Search for Another Location

Airport or City:

Trip Planner

Search our weather history database for the weather conditions in past years. The results will help you decide how hot, cold, wet, or windy it might be!

Date:

Astronomy

Jan. 13, 2013 Rise Set
Actual Time 7:54 AM EST 5:27 PM EST
Civil Twilight 7:24 AM EST 5:58 PM EST
Nautical Twilight 6:50 AM EST 6:31 PM EST
Astronomical Twilight 6:17 AM EST 7:04 PM EST
Moon 8:51 AM EST (1/13) 8:06 PM EST (1/13)
Length of Visible Light 10h 33m
Length of Day
9h 33m
Waxing Crescent, 5% of the Moon is Illuminated
Jan 13
Waxing Crescent
Jan 18
First Quarter
Jan 26
Full
Feb 3
Last Quarter
Feb 10
New

Hourly Weather History & Observations

Time (EST) Temp. Windchill Dew Point Humidity Pressure Visibility Wind Dir Wind Speed Gust Speed Precip Events Conditions
12:25 AM 62.6 °F - 59.0 °F 88% 29.81 in 10.0 mi South 18.4 mph - N/A   Overcast
12:53 AM 62.1 °F - 60.1 °F 93% 29.79 in 10.0 mi South 17.3 mph 25.3 mph N/A   Overcast
1:53 AM 63.0 °F - 59.0 °F 87% 29.78 in 10.0 mi SSW 19.6 mph 31.1 mph N/A   Overcast
2:31 AM 62.6 °F - 59.0 °F 88% 29.76 in 10.0 mi South 18.4 mph - N/A   Overcast
2:53 AM 62.1 °F - 57.9 °F 86% 29.75 in 10.0 mi South 17.3 mph - N/A   Overcast
3:53 AM 63.0 °F - 57.0 °F 81% 29.74 in 10.0 mi South 21.9 mph - N/A   Overcast
4:53 AM 61.0 °F - 57.0 °F 87% 29.73 in 10.0 mi SSW 23.0 mph 31.1 mph 0.04 in Rain Light Rain
5:53 AM 59.0 °F - 55.9 °F 90% 29.79 in 10.0 mi West 16.1 mph 33.4 mph 0.01 in   Overcast
6:53 AM 55.9 °F - 54.0 °F 93% 29.82 in 10.0 mi SSW 5.8 mph - 0.00 in   Mostly Cloudy
7:53 AM 55.9 °F - 54.0 °F 93% 29.84 in 10.0 mi South 10.4 mph - 0.01 in Rain Light Rain
8:53 AM 57.0 °F - 55.0 °F 93% 29.85 in 10.0 mi South 16.1 mph - 0.02 in Rain Light Rain
9:07 AM 57.2 °F - 55.4 °F 94% 29.85 in 10.0 mi South 13.8 mph - 0.00 in   Overcast
9:17 AM 57.2 °F - 55.4 °F 94% 29.86 in 10.0 mi SSW 12.7 mph - 0.00 in   Overcast
9:53 AM 57.9 °F - 55.9 °F 93% 29.89 in 10.0 mi SW 16.1 mph - 0.00 in   Overcast
10:00 AM 57.2 °F - 55.4 °F 94% 29.89 in 10.0 mi SSW 13.8 mph - N/A   Overcast
10:43 AM 57.2 °F - 55.4 °F 94% 29.89 in 10.0 mi SSW 13.8 mph - 0.00 in Rain Light Rain
10:53 AM 57.9 °F - 55.9 °F 93% 29.88 in 10.0 mi South 15.0 mph - 0.01 in Rain Light Rain
11:53 AM 59.0 °F - 55.9 °F 90% 29.85 in 10.0 mi SW 15.0 mph - 0.00 in   Partly Cloudy
12:12 PM 59.0 °F - 55.4 °F 88% 29.87 in 10.0 mi West 11.5 mph 23.0 mph N/A   Mostly Cloudy
12:24 PM 51.8 °F - 48.2 °F 88% 29.87 in 6.0 mi WNW 12.7 mph 21.9 mph N/A   Overcast
12:33 PM 50.0 °F - 48.2 °F 94% 29.87 in 4.0 mi NW 11.5 mph - N/A   Overcast
12:53 PM 50.0 °F - 48.9 °F 96% 29.85 in 3.0 mi NW 9.2 mph - N/A   Overcast
1:16 PM 51.8 °F - 50.0 °F 94% 29.86 in 5.0 mi WNW 5.8 mph - N/A   Scattered Clouds
1:39 PM 53.6 °F - 51.8 °F 94% 29.87 in 6.0 mi WNW 8.1 mph - N/A   Mostly Cloudy
1:53 PM 52.0 °F - 50.0 °F 93% 29.87 in 5.0 mi West 6.9 mph - N/A   Overcast
2:46 PM 53.6 °F - 51.8 °F 94% 29.85 in 5.0 mi Calm Calm - N/A   Overcast
2:53 PM 53.1 °F - 51.1 °F 93% 29.85 in 5.0 mi Calm Calm - N/A   Overcast
3:07 PM 53.6 °F - 51.8 °F 94% 29.84 in 5.0 mi Calm Calm - N/A   Overcast
3:24 PM 53.6 °F - 51.8 °F 94% 29.85 in 6.0 mi Calm Calm - N/A   Overcast
3:53 PM 54.0 °F - 51.1 °F 90% 29.86 in 5.0 mi Calm Calm - N/A   Overcast
4:44 PM 51.8 °F - 51.8 °F 100% 29.87 in 2.5 mi NNW 3.5 mph - 0.02 in Rain Light Rain
4:53 PM 53.1 °F - 52.0 °F 96% 29.87 in 2.5 mi Calm Calm - 0.03 in Rain Light Rain
5:38 PM 51.8 °F - 50.0 °F 94% 29.89 in 3.0 mi NW 17.3 mph 27.6 mph 0.08 in Rain Rain
5:53 PM 45.0 °F 37.1 °F 43.0 °F 93% 29.91 in 4.0 mi NNW 19.6 mph 25.3 mph 0.16 in Rain Heavy Rain
6:09 PM 42.8 °F 35.1 °F 41.0 °F 93% 29.91 in 4.0 mi NW 16.1 mph 24.2 mph 0.06 in Rain Rain
6:53 PM 42.1 °F 37.1 °F 39.9 °F 92% 29.91 in 10.0 mi North 8.1 mph - 0.09 in Rain Light Rain
7:53 PM 41.0 °F 34.3 °F 39.9 °F 96% 29.91 in 3.0 mi NW 11.5 mph - 0.04 in Rain Rain
8:06 PM 41.0 °F 34.7 °F 39.2 °F 93% 29.91 in 2.5 mi NNW 10.4 mph - 0.03 in Rain Light Rain
8:10 PM 41.0 °F 33.9 °F 39.2 °F 93% 29.92 in 3.0 mi NW 12.7 mph - 0.04 in Rain Light Rain
8:23 PM 39.2 °F 31.2 °F 39.2 °F 100% 29.92 in 3.0 mi NW 13.8 mph 20.7 mph 0.06 in Rain Rain
8:53 PM 39.9 °F 33.4 °F 39.0 °F 97% 29.94 in 6.0 mi NW 10.4 mph - 0.08 in Rain Light Rain
9:11 PM 39.2 °F 30.5 °F 37.4 °F 93% 29.95 in 2.5 mi WNW 16.1 mph - 0.03 in Rain Light Rain
9:19 PM 39.2 °F 32.5 °F 37.4 °F 93% 29.93 in 3.0 mi NW 10.4 mph 20.7 mph 0.04 in Rain Light Rain
9:53 PM 39.0 °F 30.3 °F 37.0 °F 93% 29.99 in 10.0 mi NW 16.1 mph 24.2 mph 0.04 in   Overcast
10:53 PM 37.0 °F 28.1 °F 35.1 °F 93% 30.04 in 5.0 mi WNW 15.0 mph - 0.01 in   Overcast
11:29 PM 35.6 °F 26.6 °F 33.8 °F 93% 30.05 in 10.0 mi NW 13.8 mph - N/A   Overcast
11:53 PM 36.0 °F 28.5 °F 34.0 °F 93% 30.06 in 10.0 mi NW 10.4 mph - N/A   Overcast